Location: Newark
(42.6681°N, 4.0833°W)
Time: 23:04:22
(UTC+00:00)

X-37B - Pass Details

Date: 04 October 2020
Orbit: 382 x 392 km, 45.0° (Epoch: 15 October)

Event Time Altitude Azimuth Distance (km) Brightness Sun altitude
Rises 20:21:28 0° 266° (W) 2,260 5.4 -27.9°
Reaches altitude 10° 20:23:34 10° 270° (W) 1,406 4.2 -28.3°
Enters shadow 20:24:09 14° 272° (W) 1,172 3.8 -28.4°
